This is the latest recevied weather packets stored in our database for station/object SP9SVH-2. If no packets are shown the sender has not sent any weather packets the latest 10 day(s).
| Time | Temp. | Humidity | Pressure | Rain* | Wind** | Luminosity | Snow |
|---|---|---|---|---|---|---|---|
| 1777207265 | 11.67° C | 3% | - | 0 mm | 1.79 m/s, 334° | - | - |
| 1777206285 | 10° C | 4% | - | 0 mm | 0.45 m/s, 278° | - | - |
| 1777205204 | 10° C | 4% | - | 0 mm | 0 m/s | - | - |
| 1777203045 | 10° C | 4% | - | 0 mm | 1.34 m/s, 349° | - | - |
| 1777201965 | 10° C | 4% | - | 0 mm | 0 m/s | - | - |
| 1777199865 | 8.89° C | 4% | - | 0 mm | 0.89 m/s, 350° | - | - |
| 1777198724 | 10° C | 4% | - | 0 mm | 1.34 m/s, 321° | - | - |
| 1777196765 | 9.44° C | 4% | - | 0 mm | 0.45 m/s, 337° | - | - |
| 1777195675 | 9.44° C | 4% | - | 0 mm | 0.89 m/s, 338° | - | - |
| 1777193624 | 9.44° C | 4% | - | 0 mm | 1.34 m/s, 356° | - | - |
| 1777192565 | 9.44° C | 4% | - | 0 mm | 1.79 m/s, 355° | - | - |
| 1777191528 | 8.89° C | 4% | - | 0 mm | 1.34 m/s, 303° | - | - |
| 1777190390 | 8.33° C | 5% | - | 0 mm | 0.89 m/s, 340° | - | - |
| 1777189390 | 7.78° C | 5% | - | 0 mm | 1.34 m/s, 343° | - | - |
| 1777188255 | 8.33° C | 5% | - | 0 mm | 1.79 m/s, 340° | - | - |
| 1777187270 | 7.78° C | 5% | - | 0 mm | 0.89 m/s, 316° | - | - |
| 1777186265 | 7.22° C | 5% | - | 0 mm | 1.79 m/s, 350° | - | - |
| 1777185075 | 6.67° C | 5% | - | 0 mm | 1.79 m/s, 4° | - | - |
| 1777183915 | 7.22° C | 5% | - | 0 mm | 3.13 m/s, 334° | - | - |
| 1777182911 | 6.67° C | 5% | - | 0 mm | 0.89 m/s, 348° | - | - |
| 1777181925 | 6.67° C | 5% | - | 0 mm | 2.68 m/s, 350° | - | - |
| 1777180884 | 6.67° C | 5% | - | 0 mm | 1.79 m/s, 336° | - | - |
| 1777179908 | 7.22° C | 5% | - | 0 mm | 1.34 m/s, 299° | - | - |
| 1777178875 | 7.22° C | 5% | - | 0 mm | 1.79 m/s, 2° | - | - |
| 1777177754 | 7.22° C | 5% | - | 0 mm | 0.45 m/s, 327° | - | - |
* Rain latest hour (hover to see other rain measurements)
** Current wind speed in m/s (hover to see current wind gust speed)